Home   Weather   Eisenstadt   Past weeks

Flag for Austria Past Weather in Eisenstadt, Burgenland, Austria — Yesterday and Last 2 Weeks

Now
50 °F

Clear.


Feels Like: 50 °F
Forecast: 48 / 69 °F
Wind: 1 mph from Northwest

Location: Eisenstadt

Current Time: Sep 25, 2016 at 5:51:11 AM

Latest Report: Sep 25, 2016 at 5:00 AM


Visibility: 7 mi

Pressure: 30.22 "Hg

Humidity: 88%

Dew Point: 46 °F

Location of EisenstadtLocation

Past Weather in Eisenstadt — Graph

°F

Eisenstadt Temperature Yesterday

Maximum temperature yesterday: 72 °F (at 3:00 PM)
Minimum temperature yesterday: 52 °F (at 7:00 AM)
Average temperature yesterday: 62 °F

High & Low Weather Summary for the Past Weeks

 TemperatureHumidityPressure
High86 °F (Sep 12, 4:00 PM)95% (Sep 18, 7:00 AM)30.33 "Hg (Sep 18, 7:00 AM)
Low44 °F (Sep 23, 7:00 AM)36% (Sep 10, 4:00 PM)29.75 "Hg (Sep 17, 5:00 AM)
Average65 °F70%30.01 "Hg
* Reported Sep 10 4:00 AM — Sep 25 4:00 AM, Eisenstadt, Weather by CustomWeather, © 2016

Note: Actual official high and low records may vary slightly from our data, if they occured in-between our weather recording intervals... More about our weather records

Advertising

Eisenstadt Weather History for the Previous 24 Hours

Scroll right to see more
 ConditionsComfort  
Time TempWeatherWind HumidityBarometerVisibility
4:00 AM
Sun, Sep 25
51 °FClear.1 mph86%30.22 "Hg7 mi
3:00 AM53 °FCool.5 mph80%30.22 "HgN/A
2:00 AM53 °FOvercast.3 mph80%30.23 "Hg9 mi
1:00 AM53 °FCool.2 mph80%30.24 "HgN/A
12:00 AM54 °FCool.5 mph78%30.25 "HgN/A
11:00 PM
Sat, Sep 24
54 °FOvercast.5 mph77%30.26 "Hg9 mi
10:00 PM55 °FCool.2 mph75%30.27 "HgN/A
9:00 PM56 °FCool.6 mph74%30.27 "HgN/A
8:00 PM58 °FClear.5 mph74%30.26 "Hg12 mi
7:00 PM62 °FPassing clouds.3 mph70%30.25 "Hg12 mi
6:00 PM69 °FMild.1 mph45%30.24 "HgN/A
5:00 PM71 °FOvercast.2 mph41%30.24 "Hg9 mi
4:00 PM72 °FMild.2 mph39%30.25 "HgN/A
3:00 PM72 °FMild.1 mph37%30.26 "HgN/A
2:00 PM71 °FScattered clouds.6 mph39%30.28 "Hg9 mi
1:00 PM72 °FMild.1 mph39%30.30 "HgN/A
12:00 PM70 °FMild.2 mph46%30.32 "HgN/A
11:00 AM69 °FSunny.No wind47%30.32 "Hg9 mi
10:00 AM63 °FMild.1 mph56%30.32 "HgN/A
9:00 AM59 °FCool.2 mph63%30.33 "HgN/A
8:00 AM55 °FSunny.1 mph70%30.32 "Hg12 mi
7:00 AM52 °FSunny.2 mph77%30.31 "Hg9 mi
6:00 AM53 °FClear.3 mph73%30.30 "Hg6 mi
Weather by CustomWeather, © 2016

See weather overviewHow to use our weather pages